Regional Weather Roundup
Issued by NWS

Home | Current Version | Previous Version | Text Only | Print | Product List | Glossary Off
Versions: 1 2 3 4 5 6 7 8 9 10 11 12 13 14 15 16 17 18 19 20 21 22 23 24 25 26 27 28 29 30 31 32 33 34 35 36 37 38 39 40 41 42 43 44 45 46 47 48 49 50

000
ASUS45 KBOU 190210
RWRCO

WEATHER ROUNDUP FOR COLORADO
NATIONAL WEATHER SERVICE DENVER/BOULDER CO
700 PM MST THU JAN 18 2018

NOTE: "FAIR" INDICATES FEW OR NO CLOUDS BELOW 12000 FEET WITH NO
SIGNIFICANT WEATHER AND/OR OBSTRUCTIONS TO VISIBILITY.

COZ001>005-013-030-031-190300-
...NORTHWEST COLORADO...

CITY           SKY/WX    TMP DP  RH WIND       PRES   REMARKS
CRAIG          FAIR      31  18  58 SE3       30.14S
HAYDEN         FAIR     N/A N/A N/A E13       30.16S
MEEKER         FAIR      32  23  69 VRB3      30.14S
RABBIT EARS PA FAIR      30  14  51 SW8       30.23S WCI  23
STEAMBOAT SPGS FAIR      24  17  74 CALM      30.16S
WALDEN         FAIR      28  12  50 S6        30.17S WCI  22
$$

COZ006>008-011-190300-
...WEST CENTRAL VALLEYS...

CITY           SKY/WX    TMP DP  RH WIND       PRES   REMARKS
GRAND JUNCTION FAIR      34  19  54 N6        30.17F WCI  29
MONTROSE       FAIR      29  16  58 SE7       30.20R WCI  22
EAGLE          FAIR      28  15  58 CALM      30.23R
RIFLE          FAIR      31  22  69 CALM      30.19S
DELTA          FAIR      37  16  42 E3        30.18R
NUCLA          NOT AVBL
$$

COZ017>023-064>068-190300-
...SOUTHWEST COLORADO...

CITY           SKY/WX    TMP DP  RH WIND       PRES   REMARKS
DURANGO        FAIR      35  19  52 CALM      30.21R
CORTEZ         FAIR      30  19  63 NE8       30.21R WCI  22
PAGOSA SPRINGS FAIR      31  17  56 CALM      30.22S
TELLURIDE      FAIR      36  13  39 SE7       30.25S
WOLF CREEK PAS FAIR      32   7  34 CALM      30.37S
$$

COZ009-010-012-014-032>034-037-058>063-190300-
...CENTRAL COLORADO...

CITY           SKY/WX    TMP DP  RH WIND       PRES   REMARKS
ASPEN          FAIR      30  12  47 S6        30.18F WCI  24
BUENA VISTA    FAIR      30   3  31 SW5       30.16R WCI  25
COPPER MTN     NOT AVBL
BERTHOUD PASS  FAIR      28  18  64 W13G20    30.29F WCI  18
COTTONWOOD PAS   N/A     45   9  23 W6        30.21F
GUNNISON       FAIR      22  12  65 CALM      30.25R
KREMMLING      FAIR      21  14  73 CALM      30.24R
LEADVILLE      FAIR      25  10  53 N7        30.22S WCI  17
MONARCH PASS   FAIR      27   5  39 W29       30.39R WCI  11
SALIDA         FAIR      44   5  19 SW10G17   30.21R
SUNLIGHT       FAIR      28  10  47 SW8       30.30S WCI  20
WILKERSON PASS FAIR      36  -4  18 W6        30.27F
$$

COZ069>075-190300-
...SAN LUIS VALLEY/SANGRE DE CRISTO MOUNTAINS...

CITY           SKY/WX    TMP DP  RH WIND       PRES   REMARKS
ALAMOSA        FAIR      23  -3  32 CALM      30.19S
DEL NORTE      FAIR      27  -1  29 W8        30.22R WCI  18
LA VETA PASS   FAIR      30   5  34 SW25        N/A  WCI  16
SAGUACHE       FAIR      25   3  39 N6        30.21S WCI  18
$$

COZ035-036-038>040-190300-
...NORTHERN COLORADO FRONT RANGE...

CITY           SKY/WX    TMP DP  RH WIND       PRES   REMARKS
DENVER INTL AP MOCLDY    41  13  31 S13       29.96F
DMNS CITY PARK NOT AVBL
AURORA         MOCLDY    44  12  26 S10       29.97F
FRONT RANGE AP MOCLDY    41  19  42 S9        29.97F
ERIE MUNI ARPT FAIR      33  22  64 CALM      30.01S
BOULDER MUN AP FAIR      46  21  36 CALM      29.96S
CENTENNIAL     MOCLDY    46   9  22 NE14      29.98F
BROOMFIELD     NOT AVBL
FORT COLLINS   FAIR      45  23  42 S3        29.95F
LONGMONT       FAIR      39  22  51 W5        29.98F
$$

COZ041-046-047-076>085-087-088-190300-
...PIKES PEAK/PALMER DIVIDE AND SOUTHERN FOOTHILLS...

CITY           SKY/WX    TMP DP  RH WIND       PRES   REMARKS
COLO. SPRINGS  FAIR      38   8  29 N7        30.05F
A. F. ACADEMY  FAIR      30   5  33 NW8       30.05S WCI  23
SCHRIEVER AFB  FAIR      35   7  30 CALM      30.05S
CHEYENNE MTN   FAIR      45   9  23 CALM      30.01S
ELLICOTT         N/A    N/A N/A N/A W5        30.04S
FALCON         FAIR      31   5  32 W6        30.07S WCI  26
FORT CARSON    CLEAR     44   9  24 CALM      30.03S
LIMON          FAIR      28  14  55 N6        30.00F WCI  22
MONUMENT HILL  FAIR      36   9  32 S10       30.07S
CANON CITY     FAIR      43  10  26 CALM      30.02S
WALSENBURG     FAIR      43  12  28 SW10      30.04F
TRINIDAD       FAIR      41   9  26 W10       30.04S
$$

COZ042>045-048>051-090-091-190300-
...NORTHEAST COLORADO...

CITY           SKY/WX    TMP DP  RH WIND       PRES   REMARKS
GREELEY ARPT   FAIR      32  19  58 CALM      29.96S
AKRON          FAIR      47  17  30 SW7       29.94F
BURLINGTON     FAIR      39  14  36 SW10      29.97F
WRAY           FAIR      45  18  33 SW10      29.92S
YUMA           FAIR      37  14  38 SW9       29.92F
STERLING       FAIR      37  23  56 SW8       29.91S
HOLYOKE        FAIR      37  23  56 SW7       29.91F
FORT MORGAN    FAIR      44  14  29 W3        29.94F
$$

COZ086-089-092>099-190300-
...SOUTHEAST COLORADO...

CITY           SKY/WX    TMP DP  RH WIND       PRES   REMARKS
PUEBLO         FAIR      36  11  35 N3        29.99S
LA JUNTA       FAIR      46   9  22 N3        29.98F
LAMAR          FAIR      33   8  35 CALM      29.97S
SPRINGFIELD      N/A     34   1  24 SW10      30.00S WCI  26
$$



USA.gov is the U.S. government's official web portal to all federal, state and local government web resources and services.